Theta_e
315 315 314 315 314 315 315 315 316 315 313 312 310 308 307 306 306 305 305 306 307 308 308 308 308 308 308 307 306 308 309 313 318 317 320 322 316 314 311 311 313 312 313 313 313 315 314 315 314 315 317 319 322 323 322 322 323 325 325 322 320 321 321 322 321 320 321 319 317 317 317 316 316 315 315 315 315 316 315 316 317 317 316 316 327 334 332 331
314 314 314 314 314 315 315 315 315 314 313 312 311 309 307 306 306 305 305 305 307 308 308 308 308 308 308 307 307 309 309 314 320 321 322 320 312 311 312 312 313 313 313 314 316 315 314 315 314 314 317 319 321 323 323 322 322 324 324 321 321 323 321 320 318 318 320 318 316 317 317 317 317 316 315 315 315 315 315 316 317 317 317 315 323 331 330 329
314 313 314 314 314 314 315 314 314 313 313 312 311 309 307 306 306 305 305 305 306 307 308 308 308 308 307 306 309 308 312 317 320 322 321 316 311 312 313 313 314 313 313 316 318 316 314 315 314 314 316 317 319 321 322 321 320 322 324 323 321 322 319 318 317 317 317 318 317 316 317 317 316 316 315 315 315 316 315 316 317 316 318 316 319 327 329 329
313 313 313 314 313 314 314 314 313 313 312 312 311 309 307 306 306 306 305 305 306 307 308 308 307 308 306 307 309 309 317 321 319 320 318 315 312 312 314 314 314 314 314 315 315 315 314 315 314 314 316 316 317 319 320 320 320 320 322 322 320 319 319 317 316 316 316 317 318 317 317 316 316 317 315 316 315 316 316 316 317 315 318 317 316 325 329 329
312 313 313 313 313 313 313 313 313 312 311 310 310 309 307 306 305 305 305 305 306 306 307 308 307 307 306 308 308 313 321 319 316 319 315 314 313 313 315 314 314 314 314 314 314 314 314 314 314 315 316 316 317 317 318 317 318 319 319 319 318 318 318 317 315 316 317 317 318 317 316 316 317 317 316 317 316 316 317 317 318 317 319 317 316 324 328 329
312 312 313 313 313 312 312 312 312 312 311 310 310 308 307 306 306 305 305 306 305 306 307 307 307 307 307 309 308 315 323 316 317 319 313 313 314 313 314 313 314 314 314 314 315 315 314 314 314 315 315 315 316 315 316 316 316 318 318 317 317 317 318 316 315 316 317 317 317 316 316 316 316 317 316 317 316 317 318 318 319 319 320 317 316 322 326 329
313 312 313 313 312 311 312 312 312 312 313 312 311 308 307 307 306 305 305 305 306 306 307 307 307 306 308 310 310 316 320 316 318 316 311 313 313 313 313 313 314 314 315 316 315 315 314 315 314 315 315 315 315 314 316 316 315 316 316 317 316 317 316 315 315 315 315 316 316 316 316 316 316 317 317 317 317 317 318 318 316 316 318 317 317 320 323 326
313 312 312 312 311 311 312 312 311 312 313 312 311 308 307 307 306 305 305 305 306 306 307 307 306 307 308 313 317 317 316 319 319 313 311 313 312 313 314 315 315 315 317 316 315 315 315 315 314 315 315 315 315 315 316 314 314 315 315 317 316 316 315 314 315 314 315 315 315 315 316 316 317 316 317 318 318 317 318 317 316 316 316 318 319 320 321 323
313 311 311 311 310 310 311 311 311 312 312 312 312 310 308 308 306 306 305 305 306 306 307 306 307 308 308 315 320 317 316 319 317 312 312 312 312 312 315 317 316 316 317 315 315 315 315 315 315 316 316 315 315 315 316 314 315 315 316 317 316 316 315 315 315 315 315 315 315 316 316 317 317 315 316 317 317 317 318 318 318 317 316 317 319 320 321 322
313 311 310 310 309 309 310 310 310 311 311 312 312 311 309 308 307 306 305 306 306 307 307 306 308 308 309 315 316 315 318 318 315 313 312 312 312 313 316 318 316 318 317 314 316 316 316 316 317 318 317 316 315 316 317 316 317 317 317 318 317 317 315 316 316 315 316 316 315 315 317 317 316 316 317 318 318 318 319 318 317 318 317 316 318 319 318 319
312 311 310 310 309 309 309 310 310 310 311 312 312 311 309 308 307 306 306 306 306 307 307 308 309 309 313 316 314 315 317 316 314 313 312 312 312 315 317 316 316 319 318 316 318 317 317 317 317 317 317 316 316 317 317 316 317 317 317 317 317 317 316 316 316 316 316 316 315 316 317 317 316 317 317 318 319 318 319 318 317 318 318 317 317 318 317 317
312 311 310 310 310 309 310 310 310 311 312 312 312 310 309 308 307 307 306 306 307 307 307 309 309 311 316 316 314 317 317 315 313 311 312 313 313 315 316 316 316 317 318 318 317 316 316 317 317 316 316 316 315 316 316 316 317 317 317 317 317 317 317 317 317 317 317 316 316 316 317 317 317 318 317 318 319 318 318 318 318 318 318 319 318 318 318 317
311 310 309 310 310 310 310 310 311 311 312 312 311 310 309 307 307 306 307 307 307 308 308 310 310 312 316 315 316 318 316 313 312 312 313 314 315 316 316 316 316 316 317 318 315 313 314 315 318 317 317 317 316 316 316 317 317 317 317 317 318 317 316 318 317 318 317 317 317 316 317 319 318 318 317 319 319 318 318 318 318 319 319 319 319 319 320 318
310 309 309 310 310 310 310 311 311 311 311 311 310 309 308 307 307 306 307 307 308 309 310 309 310 313 314 313 316 317 314 312 313 314 314 315 316 315 315 315 315 315 315 315 314 313 314 316 318 317 317 317 316 316 316 316 316 317 317 317 319 317 316 319 318 318 317 316 317 316 317 318 317 319 319 319 319 318 319 318 318 318 318 320 321 321 322 319
310 310 309 310 311 310 311 311 312 312 311 310 309 308 307 307 307 306 308 308 309 310 309 310 311 314 313 312 316 316 313 313 316 315 314 316 318 316 315 314 314 315 314 314 314 315 316 317 318 317 316 316 317 317 317 316 316 318 317 317 319 317 318 319 317 318 317 316 316 317 317 318 317 319 319 318 318 318 318 318 318 319 319 320 322 322 322 320
311 310 310 311 311 311 311 311 311 312 311 309 308 308 308 308 307 308 308 309 311 310 311 316 314 312 313 314 316 316 314 317 317 314 314 318 319 317 315 314 315 315 314 315 315 316 317 316 319 320 317 316 317 319 319 317 317 318 317 317 319 318 318 319 317 317 318 317 317 317 317 318 318 319 318 318 318 318 318 318 318 319 320 320 321 321 321 321
311 310 310 310 310 311 312 312 312 311 310 309 308 308 308 309 308 309 309 310 312 311 312 317 313 310 311 312 314 315 316 319 317 313 314 317 318 316 316 316 316 316 316 316 317 318 317 317 319 320 317 316 317 318 319 318 317 319 318 317 319 319 317 317 317 317 318 317 317 317 317 317 318 318 318 318 318 319 320 319 319 320 321 322 323 323 322 321
311 310 310 310 310 311 312 312 312 311 310 309 309 310 309 309 310 312 311 311 312 311 311 312 310 312 311 310 314 317 318 318 316 314 314 315 316 316 318 317 316 317 317 317 317 318 318 318 318 319 317 316 317 318 319 319 318 318 319 317 318 318 317 316 317 318 317 317 317 318 318 317 317 317 318 318 319 319 320 320 319 320 320 321 322 323 322 321
311 311 311 311 311 311 311 312 312 311 309 309 311 311 311 312 313 316 315 312 311 310 310 311 310 312 312 312 317 319 318 316 315 316 314 314 315 316 317 317 318 318 317 318 318 317 320 320 318 321 321 317 317 318 319 320 316 316 318 317 317 317 316 316 317 316 316 317 317 317 317 316 317 317 318 318 319 319 319 320 320 319 320 319 320 321 322 323
312 312 311 311 311 311 311 312 312 311 310 312 315 314 313 314 313 313 314 313 311 310 312 312 311 312 315 317 317 316 316 316 316 317 315 314 316 316 316 317 320 319 317 319 320 318 320 322 322 323 322 317 317 317 317 317 315 315 317 318 317 316 316 317 318 316 316 316 316 317 317 316 316 317 317 317 319 320 319 319 319 320 321 321 321 321 320 321
313 313 312 313 312 312 312 313 312 311 310 314 318 318 314 312 311 312 313 312 312 312 313 314 312 314 317 316 315 315 316 316 316 318 316 315 317 317 317 317 318 318 318 320 320 318 319 322 323 321 319 317 317 317 317 316 315 315 317 317 317 318 317 317 317 316 315 317 317 316 316 316 317 317 318 319 319 318 318 318 318 319 320 321 322 321 321 320
314 314 314 314 314 314 314 313 313 310 310 313 316 318 316 312 311 313 313 311 313 314 313 313 313 314 317 316 314 317 317 315 317 320 317 315 318 317 316 317 316 317 319 319 319 319 319 320 320 317 317 317 317 317 316 316 317 317 318 318 319 320 318 317 317 316 315 317 317 317 317 316 316 317 317 317 318 317 317 318 318 319 320 322 322 321 321 322
315 315 315 315 315 315 315 315 314 311 310 313 316 317 316 312 308 310 314 314 315 315 313 312 313 313 315 315 315 317 317 314 317 320 317 315 318 318 316 316 316 318 319 318 319 319 319 318 317 317 317 317 316 316 315 316 317 319 319 318 319 323 320 316 316 316 316 316 316 318 318 317 316 318 317 316 316 315 316 318 319 322 323 323 323 322 322 324
316 316 316 316 316 315 315 315 315 313 312 314 317 317 316 312 308 310 317 316 313 314 312 312 314 314 315 315 315 316 315 314 318 318 316 316 317 317 317 315 315 317 318 316 317 318 317 316 317 317 316 317 317 317 317 317 317 321 323 320 319 321 320 319 318 318 317 317 319 320 322 323 321 319 320 319 319 317 317 320 321 325 328 327 327 326 326 327
317 317 317 317 316 316 315 315 316 316 315 313 314 315 314 312 310 311 316 314 312 314 313 313 314 314 314 314 315 316 314 314 319 318 315 316 316 316 317 316 315 316 317 317 315 315 317 316 318 318 316 317 318 319 320 320 317 318 324 324 321 320 322 322 322 321 318 317 322 322 322 327 324 317 319 318 320 320 320 323 324 325 328 329 328 327 327 328
318 318 318 317 318 317 316 318 319 317 315 313 313 313 311 311 310 311 314 312 312 313 311 311 312 311 313 315 316 315 313 314 317 317 316 316 316 315 315 315 315 315 315 316 316 316 317 316 318 321 321 322 322 320 322 323 317 315 322 327 324 323 325 322 320 321 318 318 323 321 320 323 318 312 315 316 316 318 318 322 324 323 325 326 325 326 327 328
320 319 319 319 319 318 318 319 319 316 316 316 316 312 310 310 310 312 315 313 314 313 311 310 309 310 313 315 315 312 312 315 316 316 316 316 316 315 314 314 315 315 315 318 319 318 318 318 321 323 324 326 323 321 322 321 317 319 325 327 324 324 326 322 320 321 321 322 324 322 320 322 319 314 315 318 317 317 317 318 320 321 324 325 325 328 329 329
319 320 320 320 319 318 318 319 318 317 317 316 314 311 310 310 310 312 313 314 316 315 312 311 308 311 315 315 314 311 311 314 315 316 315 314 315 315 314 314 314 315 316 318 319 319 320 322 324 324 324 324 323 324 327 322 320 324 326 325 325 325 325 323 322 322 323 325 326 325 322 323 324 322 320 321 318 317 318 318 319 320 323 325 327 329 331 330
318 319 320 320 320 319 319 318 319 319 318 316 313 310 310 311 312 313 313 314 317 313 311 311 310 312 315 313 313 312 311 314 315 316 315 313 315 315 313 315 314 315 316 316 320 322 321 318 321 324 322 322 322 324 329 326 323 325 325 324 326 326 325 323 323 323 323 323 324 328 326 319 320 322 319 320 320 320 321 319 319 323 327 331 332 331 329 331
316 318 319 320 319 318 318 319 319 320 319 316 312 310 311 314 313 313 313 314 317 315 310 310 311 313 314 312 312 311 312 315 315 315 314 314 315 314 314 315 315 318 319 319 321 320 316 313 317 321 320 320 320 319 324 327 325 324 325 325 324 324 324 323 323 322 322 322 323 328 327 317 317 321 317 318 321 323 321 318 320 327 331 331 332 331 328 329
315 316 317 318 318 318 318 320 320 320 319 313 310 311 314 316 314 312 313 315 318 317 311 310 313 313 311 311 311 311 313 315 315 315 315 316 315 314 315 315 317 321 321 320 321 319 318 317 318 319 317 317 319 319 321 323 324 324 324 322 321 322 323 322 323 324 322 321 322 326 327 321 318 319 317 318 320 320 320 319 321 327 332 332 331 331 327 327
314 315 315 317 318 318 319 320 319 320 317 311 312 316 317 315 315 315 315 314 317 317 314 313 314 312 311 312 313 311 313 316 316 315 316 317 316 315 315 316 317 320 320 319 321 321 322 322 321 320 317 317 321 323 321 320 323 325 323 320 320 320 323 324 326 329 325 320 321 323 324 322 319 316 316 319 318 318 319 321 323 324 327 331 331 330 329 329
314 316 316 317 317 317 318 319 318 318 315 311 313 319 320 315 313 316 316 314 316 317 316 315 314 312 312 313 314 313 314 317 316 315 316 317 317 316 315 316 316 318 319 318 321 322 322 323 323 320 318 318 320 322 320 319 322 323 321 323 322 318 320 323 324 327 325 322 322 322 321 322 320 316 318 319 317 320 321 322 325 323 322 326 328 330 332 332
313 315 316 317 317 316 317 317 316 316 314 312 316 319 319 316 314 314 316 317 317 317 317 316 315 314 313 314 316 314 315 318 316 316 318 318 318 317 316 316 316 316 316 315 321 322 321 323 324 320 319 320 320 320 320 320 321 320 319 321 322 319 317 318 319 323 326 324 320 319 321 324 322 319 319 318 319 322 322 322 325 325 324 326 327 329 331 332
311 314 315 316 317 316 316 316 316 316 313 314 320 319 316 316 317 315 316 318 318 317 316 316 316 314 314 318 319 315 317 320 317 317 320 319 317 317 317 316 315 316 316 315 319 320 318 321 323 320 319 318 318 319 319 319 319 319 319 319 322 321 315 316 319 321 322 322 322 323 325 325 322 319 317 317 318 318 319 323 326 327 327 328 330 332 331 329
310 312 314 315 316 316 316 316 316 316 314 315 317 316 315 318 321 320 318 318 318 317 317 316 317 316 316 319 320 316 317 321 320 319 321 320 317 317 317 317 315 315 316 315 317 320 319 322 323 321 317 316 319 322 321 321 320 319 322 321 323 322 316 317 321 320 318 318 320 323 323 319 316 315 316 316 316 315 315 319 322 322 324 328 333 335 331 329
310 311 312 314 315 316 316 316 316 315 316 317 315 315 318 321 322 321 320 320 317 316 316 317 318 317 316 319 319 318 318 320 321 320 320 320 319 318 317 317 317 315 315 314 316 319 320 322 322 321 319 318 320 322 322 324 323 323 325 322 321 323 320 318 319 321 320 318 318 317 315 314 312 313 316 317 316 315 316 317 318 319 322 326 332 334 333 333
310 310 311 312 313 315 315 315 315 314 316 318 315 315 316 317 319 320 319 319 317 316 317 319 319 317 317 317 318 318 317 318 320 319 319 318 318 319 317 317 319 316 315 315 316 319 319 319 319 319 319 319 318 318 321 322 320 322 324 321 320 323 323 320 317 317 319 318 318 317 315 315 313 312 314 315 316 317 318 318 318 319 323 325 330 334 335 334
309 308 309 311 312 314 315 313 313 314 316 317 315 316 315 314 317 318 318 319 320 319 318 318 319 318 318 317 317 317 315 316 319 318 318 317 318 319 317 317 320 318 316 316 316 318 319 319 320 317 317 318 317 318 321 321 320 320 321 320 322 322 322 322 319 316 317 317 316 317 317 316 315 313 314 315 316 316 316 318 318 320 323 323 327 338 343 339
308 307 309 312 312 314 314 311 312 314 315 315 315 315 316 315 316 316 317 319 320 322 321 321 321 319 318 319 319 318 316 316 319 317 316 316 317 319 317 317 320 320 317 316 316 318 318 318 320 317 315 319 320 319 319 320 320 320 320 321 322 321 321 324 322 318 318 317 315 315 316 315 314 313 316 316 317 317 319 321 322 323 323 322 328 341 347 340
306 306 309 313 313 313 312 311 312 314 315 314 314 314 316 317 316 316 317 317 318 320 320 321 323 322 321 320 320 320 317 316 319 318 317 316 316 319 319 317 318 320 319 318 318 318 317 316 320 320 318 319 320 318 317 319 319 317 317 318 320 319 320 322 321 319 319 318 318 318 318 317 314 314 318 316 315 319 324 323 322 322 320 321 328 337 340 334
304 304 308 313 313 313 313 312 313 314 316 316 314 314 315 317 317 318 317 316 317 319 318 318 321 322 323 323 324 323 319 317 319 319 318 317 317 320 321 317 317 319 319 318 318 318 316 316 319 322 321 320 319 319 321 322 321 319 317 316 317 318 319 320 320 321 323 321 320 321 320 318 314 313 317 315 316 322 326 322 319 319 319 323 330 333 332 330
303 304 309 312 313 312 313 314 314 314 315 316 315 315 316 317 317 318 317 316 316 317 318 319 319 320 321 322 323 323 320 319 321 320 319 319 319 319 319 317 318 319 318 318 319 319 317 317 318 319 319 321 320 319 321 321 320 322 322 320 319 318 318 320 321 322 325 324 322 321 320 318 314 315 317 318 321 324 323 320 319 321 324 330 333 330 329 330
302 304 307 310 312 313 313 313 314 314 314 314 315 315 316 317 317 317 317 316 316 318 318 318 318 319 320 320 320 321 321 320 321 321 320 320 321 321 318 317 319 318 318 321 321 319 319 320 320 320 320 322 322 321 321 320 319 321 323 322 322 321 322 324 323 321 322 324 325 322 320 317 316 320 322 321 322 321 320 321 323 325 329 332 332 329 328 328
302 302 304 308 310 311 312 312 312 313 314 314 315 315 315 316 316 317 317 316 316 317 317 317 317 318 319 319 319 320 319 319 320 322 322 321 321 321 320 320 317 316 321 325 322 319 320 321 320 319 320 321 323 325 325 322 320 319 321 322 322 323 325 325 324 322 321 322 323 321 319 317 315 318 320 319 320 319 319 321 323 324 327 330 330 329 329 328
301 302 303 305 308 309 310 310 310 312 313 313 314 315 315 316 316 316 317 317 316 316 317 317 317 318 319 319 319 319 318 318 319 321 321 320 321 320 321 322 320 319 322 326 326 323 323 322 319 319 319 319 321 325 325 322 320 319 320 321 321 322 324 323 323 323 321 320 320 319 318 317 316 315 315 315 317 318 317 318 319 321 324 328 330 331 330 329
302 302 302 304 307 308 309 310 310 312 313 312 313 314 315 315 316 316 316 316 316 316 317 317 317 318 319 319 319 319 318 318 318 318 319 320 321 320 319 321 320 319 320 322 324 325 323 319 319 319 319 319 320 322 323 321 320 320 319 320 320 321 323 323 322 321 319 319 320 318 318 319 317 315 315 315 316 317 316 316 317 319 320 324 327 328 328 328
303 303 302 304 306 307 308 310 310 310 312 312 312 313 314 315 315 315 315 315 316 317 317 318 317 318 318 319 319 319 319 318 318 318 317 319 321 320 319 320 319 317 321 322 321 324 323 318 318 319 319 320 320 320 321 321 320 320 320 321 321 321 322 323 321 319 319 320 319 317 319 319 317 315 315 315 316 317 315 315 317 318 318 319 320 321 321 321
302 302 302 303 305 305 308 309 309 310 311 312 312 312 313 314 314 314 315 315 315 316 316 317 317 316 317 318 319 319 320 319 319 318 317 318 320 320 320 321 318 314 318 320 318 320 322 319 319 320 319 320 319 319 321 320 319 320 321 321 322 322 322 321 320 319 319 320 319 318 319 318 316 316 315 315 316 316 315 315 316 316 317 317 317 318 319 319
301 302 303 304 304 304 306 308 309 310 310 310 311 312 311 312 313 313 314 315 315 315 315 316 316 316 317 317 318 318 318 319 319 319 318 319 320 320 320 321 319 313 313 316 316 317 319 319 319 318 319 319 318 318 320 320 320 320 321 321 321 322 322 321 320 320 320 319 319 318 319 318 316 315 316 315 315 315 316 316 316 316 316 317 319 320 320 320
301 302 302 304 304 304 305 307 309 309 309 310 310 311 311 311 311 312 313 314 315 315 315 315 316 316 316 317 317 316 317 318 318 318 319 318 318 318 319 319 320 316 313 315 317 316 316 317 317 316 318 320 319 319 319 319 319 319 319 320 320 320 321 320 319 320 320 320 320 319 320 318 316 316 316 316 316 316 316 316 316 316 316 317 320 320 320 320
301 301 302 303 304 304 304 306 308 309 309 309 309 310 310 310 310 311 311 313 314 314 314 315 315 315 315 316 316 316 316 316 315 315 316 316 315 316 317 317 318 317 315 314 316 316 316 317 317 317 319 320 318 319 319 318 318 319 318 318 317 317 318 318 318 318 318 319 320 320 319 317 316 317 317 316 316 316 316 316 316 316 316 319 322 321 320 320
Wind_Speed
7 9 7 6 6 5 5 5 5 4 5 6 7 7 8 8 8 8 8 8 8 8 8 7 6 6 5 4 5 4 3 3 4 7 6 3 2 6 7 6 5 5 5 5 4 3 4 6 6 6 5 3 1 2 2 1 1 0 1 1 3 4 2 2 3 2 4 6 5 6 7 5 6 4 2 2 1 2 4 4 4 6 7 10 13 16 16 17
8 9 7 6 6 5 5 5 4 4 5 6 7 8 8 8 8 8 8 8 8 8 9 8 7 6 5 5 5 4 4 4 5 7 6 4 4 6 6 5 4 5 5 4 4 6 6 4 7 7 4 2 1 1 2 1 1 1 2 3 3 1 2 4 6 6 4 4 6 6 6 4 6 7 3 3 4 5 5 4 6 6 7 10 12 16 16 16
9 8 7 7 6 6 5 5 4 4 6 7 7 8 9 9 8 9 9 9 9 9 9 8 8 6 5 5 4 4 3 3 5 4 5 6 6 6 5 4 4 4 5 4 5 6 7 5 5 7 4 2 1 1 2 1 1 1 1 2 2 2 4 7 8 7 5 3 5 7 3 2 4 6 4 3 5 7 7 6 7 7 7 9 10 14 17 16
9 8 7 7 6 6 5 5 5 5 6 7 7 7 8 8 8 9 9 9 10 10 10 9 8 7 6 5 4 3 1 1 2 2 7 7 6 6 5 4 4 3 5 4 4 6 9 9 4 6 4 2 2 1 3 2 1 0 0 1 2 4 4 6 7 6 5 5 3 6 2 1 3 4 4 4 3 5 6 6 7 9 11 12 10 13 17 16
9 8 8 7 6 6 5 5 5 5 5 6 6 6 6 7 8 8 9 9 9 10 10 9 8 7 6 4 4 3 1 1 0 2 6 8 7 6 4 3 3 3 4 3 3 5 7 8 4 3 4 2 4 2 3 3 1 1 2 3 3 4 3 4 5 5 4 3 2 6 3 0 3 3 3 4 3 3 2 1 2 3 9 14 12 13 15 14
9 8 8 8 7 6 5 5 5 4 4 4 4 5 6 7 7 8 9 9 9 10 10 9 8 6 5 4 3 3 1 1 1 1 6 8 7 6 4 3 3 2 4 2 4 5 5 6 4 3 3 2 5 4 3 4 2 1 1 4 5 4 3 3 3 3 5 2 3 3 0 1 2 2 4 6 6 3 5 6 7 6 10 17 15 13 12 11
10 9 9 9 8 6 6 5 4 4 3 3 4 5 6 6 7 8 9 9 9 10 10 9 8 6 4 3 3 3 2 0 2 2 7 8 7 6 4 3 3 3 3 3 6 5 4 5 4 4 4 3 5 5 3 3 2 2 1 4 3 4 4 3 2 1 3 3 3 2 2 1 3 3 0 4 7 4 5 8 8 8 12 16 13 10 11 11
10 11 12 10 9 7 6 5 4 4 4 4 4 5 6 6 7 8 9 9 9 10 10 9 8 6 5 4 2 2 3 1 3 4 7 8 7 5 4 3 2 2 1 4 5 3 4 5 5 5 3 2 3 5 3 3 3 3 1 4 2 3 5 4 3 2 1 1 2 2 2 3 2 1 2 4 7 6 5 8 8 8 9 10 10 10 9 10
11 11 13 12 10 7 6 6 5 5 4 4 4 4 5 6 7 8 8 9 9 10 9 9 7 6 6 4 1 2 2 4 5 6 8 7 5 4 4 3 2 2 3 3 4 5 3 3 4 2 1 1 2 4 2 2 2 2 3 5 4 4 4 3 3 3 1 1 2 1 5 3 3 3 4 8 8 8 6 8 7 8 7 7 8 9 9 9
11 11 12 12 10 8 7 6 6 6 4 4 4 4 5 6 6 7 8 8 9 9 9 8 6 5 6 4 2 2 1 6 6 6 8 6 4 4 2 1 1 3 4 1 2 4 3 3 3 3 3 1 1 2 1 1 1 1 4 6 5 5 4 1 2 4 1 1 1 3 4 1 3 1 4 4 3 6 8 8 7 8 7 7 7 8 10 10
11 10 11 11 9 8 7 6 6 4 3 3 4 4 5 5 6 7 8 8 8 9 8 7 6 6 5 3 3 2 2 5 6 8 8 6 4 3 2 1 2 2 4 0 2 3 3 6 6 3 2 1 3 2 3 1 3 1 5 6 5 5 4 2 3 4 2 1 0 3 5 2 3 2 7 4 2 5 7 6 7 7 7 7 8 8 9 10
11 11 10 9 9 8 7 6 5 4 3 4 5 5 5 5 6 7 8 8 9 9 8 6 7 6 3 3 3 1 4 5 7 9 8 5 4 3 2 2 1 1 5 2 3 2 2 4 6 2 2 1 4 3 1 2 2 3 3 3 5 4 3 5 4 4 3 0 2 1 4 5 5 9 12 7 6 5 6 6 6 7 7 7 8 7 7 10
11 11 10 9 8 7 7 6 5 4 5 5 5 5 5 5 6 7 8 8 9 8 7 6 7 5 2 2 1 3 5 7 8 8 7 6 5 3 3 2 1 1 3 1 4 3 3 4 5 2 2 3 2 1 1 2 0 2 3 1 4 3 3 7 6 4 3 1 2 0 2 6 6 13 11 7 8 6 5 6 6 6 6 7 7 6 7 9
11 11 10 9 8 7 7 6 5 4 5 5 5 5 5 6 6 7 8 8 8 7 6 6 5 4 1 0 2 3 5 9 7 6 7 7 5 5 5 3 2 2 1 3 5 3 3 4 3 2 2 3 2 2 1 2 1 2 2 1 2 2 2 4 5 6 4 0 3 2 1 7 4 4 3 6 7 7 6 7 6 6 6 7 7 7 7 8
10 10 10 9 8 8 6 6 5 5 5 5 4 4 4 5 6 6 7 7 6 6 5 5 5 4 1 1 1 3 7 9 5 5 8 8 5 5 5 6 7 6 4 6 7 5 4 3 2 2 2 2 2 2 3 3 2 1 2 2 3 2 1 2 2 4 3 1 3 3 2 7 5 1 3 4 4 4 5 6 6 7 6 6 6 7 7 7
11 10 10 10 9 7 6 5 5 4 4 3 2 3 4 5 6 6 6 6 5 6 5 4 6 4 1 1 3 4 5 4 5 7 9 8 5 5 7 8 8 7 5 7 7 5 3 3 1 1 1 0 1 3 3 3 2 1 2 2 3 3 3 2 1 0 3 1 3 4 3 5 3 3 4 4 5 5 5 5 7 7 6 6 6 6 7 7
12 11 11 10 9 7 6 5 4 3 3 2 2 3 4 4 5 5 6 6 5 6 3 0 5 4 1 2 4 4 4 4 6 7 8 8 7 7 7 5 5 5 5 4 3 2 1 2 1 1 1 1 3 3 3 2 3 3 3 3 2 3 3 2 0 0 2 1 3 5 5 6 7 4 4 4 6 7 6 7 7 7 6 6 6 6 7 7
11 11 11 10 9 8 7 5 3 3 2 2 3 5 6 6 7 6 6 7 7 4 1 3 2 3 1 3 4 4 7 8 8 7 7 6 7 7 3 1 4 5 4 2 0 0 0 1 1 0 2 2 4 3 4 3 2 2 4 4 3 2 3 2 1 2 3 1 3 5 6 9 12 10 7 7 8 8 8 8 8 7 8 7 7 7 7 8
11 9 9 9 9 8 7 5 3 3 3 4 6 9 10 8 7 5 4 5 4 2 0 2 4 2 1 4 5 6 9 10 8 5 5 5 6 6 1 2 3 2 3 2 1 1 1 1 1 0 3 4 4 4 4 1 3 2 1 2 2 2 2 1 3 0 0 1 4 7 8 9 11 11 9 9 8 9 9 8 8 8 8 7 7 7 8 9
11 10 9 8 7 8 7 5 4 3 5 7 8 8 7 6 3 3 3 3 2 0 1 1 3 2 3 5 6 9 10 8 5 3 5 7 6 4 2 3 2 1 2 3 2 0 1 1 2 3 5 6 7 6 2 3 5 3 3 2 2 2 1 3 4 1 2 1 5 7 8 10 10 11 9 8 8 8 8 8 8 8 8 8 8 9 10 10
10 10 9 7 7 8 7 5 4 4 7 9 6 2 2 3 3 3 3 3 2 2 3 1 2 4 4 8 10 10 7 3 1 3 6 7 5 3 3 3 2 1 2 3 4 1 2 1 4 6 3 2 4 4 4 3 4 3 2 3 3 1 0 3 3 1 1 2 4 6 8 10 9 9 9 7 8 9 9 9 10 10 9 8 9 11 12 9
10 9 9 9 8 7 5 4 5 5 7 8 5 3 1 2 1 1 2 3 2 2 2 1 2 4 5 8 10 7 2 2 3 3 6 7 4 3 4 3 3 4 3 5 4 2 1 3 5 3 2 5 5 5 5 3 3 3 1 1 2 2 1 3 3 0 1 1 4 6 7 10 10 9 11 10 11 11 10 11 11 10 9 8 9 12 10 8
10 10 9 9 8 6 4 3 4 5 7 7 4 4 2 4 4 1 1 1 2 1 1 1 2 5 5 3 6 5 3 5 5 4 8 8 4 2 4 5 5 4 5 4 4 3 2 4 3 2 4 5 5 4 3 2 1 2 2 1 1 2 1 1 1 1 3 4 3 6 6 10 10 9 12 13 14 13 10 10 10 9 9 9 11 11 9 8
12 11 10 9 8 6 4 2 1 3 5 7 7 5 2 4 5 2 1 1 1 1 0 0 0 3 5 3 6 6 1 2 3 6 11 9 4 2 3 5 6 4 4 5 6 5 2 1 1 3 2 1 4 3 2 2 2 4 5 4 4 2 3 2 1 2 4 3 2 5 5 8 7 5 8 7 8 10 8 8 9 8 9 9 10 10 8 8
13 12 10 10 8 6 3 1 1 2 5 6 8 9 7 6 6 3 0 1 2 1 2 0 1 2 5 5 5 4 1 2 3 4 11 8 2 3 1 2 3 4 5 7 6 5 2 1 1 3 2 0 4 3 4 4 2 4 5 4 4 2 4 5 3 3 3 2 1 2 3 6 6 5 7 6 3 6 6 7 9 9 8 8 9 9 8 7
16 14 12 11 9 7 3 0 3 4 4 3 5 8 10 8 5 2 1 1 2 2 2 3 3 4 7 6 4 2 2 1 3 3 7 4 0 1 1 1 1 2 5 5 3 2 2 1 1 5 4 3 2 2 4 5 1 3 3 3 2 2 6 4 3 2 1 3 3 2 0 5 7 9 10 8 7 9 7 8 10 8 8 9 9 8 7 7
19 17 15 13 12 10 3 1 5 5 3 2 4 7 8 7 3 1 2 1 3 4 4 2 1 5 8 6 5 4 1 4 3 2 3 2 1 2 1 3 3 1 2 2 1 0 3 3 1 3 4 4 3 2 3 7 2 2 4 4 3 5 5 3 2 0 2 3 2 3 3 3 6 10 10 8 10 11 9 10 11 9 9 9 8 7 7 7
16 20 18 15 15 12 3 2 5 3 1 2 3 7 7 5 2 1 1 1 2 4 3 1 2 4 5 3 4 3 1 4 4 1 2 2 1 2 1 3 4 5 3 3 3 1 2 5 5 5 4 3 4 1 2 7 4 2 4 2 3 6 4 3 3 1 1 4 3 3 3 3 6 7 8 7 9 9 8 10 11 10 9 7 6 6 6 5
9 16 19 17 16 14 5 0 2 1 2 5 2 8 8 4 2 1 1 3 2 3 1 2 3 3 3 3 3 3 2 2 1 1 1 2 2 2 1 2 2 6 6 3 3 2 2 2 3 4 4 3 3 3 3 2 3 3 4 3 5 5 4 3 2 1 2 2 4 5 5 3 5 5 5 6 7 7 8 9 7 4 3 5 6 6 5 5
3 8 16 19 16 15 10 3 2 3 3 4 1 9 9 3 1 2 3 3 2 2 1 1 3 5 8 7 4 4 4 3 2 3 2 1 2 2 0 0 2 2 3 2 3 2 1 1 0 1 1 2 5 4 4 3 3 4 4 4 4 3 4 2 1 3 2 3 4 6 10 5 4 4 4 4 4 4 5 5 1 4 6 6 5 4 5 4
2 3 9 18 17 15 11 3 3 5 3 1 7 10 8 2 1 4 5 1 1 2 2 2 4 8 11 10 6 5 5 4 4 6 3 2 2 1 1 1 2 3 3 2 1 2 2 1 1 0 1 2 5 4 4 4 3 3 2 4 3 2 4 3 2 3 1 4 2 2 4 5 6 5 1 2 2 2 1 1 4 6 6 4 3 4 5 5
3 3 6 15 17 15 11 3 2 3 0 5 9 6 4 3 2 5 4 1 1 3 5 5 7 9 11 10 6 6 7 5 5 7 5 5 4 4 5 4 4 3 0 3 1 1 1 3 3 2 3 1 5 4 4 5 4 1 2 5 4 1 2 1 1 1 3 5 2 4 3 2 8 6 3 6 6 2 1 1 4 4 5 6 5 4 5 6
4 4 5 12 16 14 12 5 3 4 4 7 6 2 1 4 5 7 6 3 1 1 4 7 9 10 11 9 6 7 6 4 6 6 5 6 5 6 7 7 8 5 2 5 4 1 1 2 3 4 2 2 5 4 3 0 2 4 5 5 5 3 2 3 3 2 3 3 3 4 2 3 6 5 5 8 7 5 3 1 1 1 1 2 3 4 6 6
2 4 3 8 15 15 14 11 4 4 6 7 5 2 4 6 7 8 8 3 1 2 3 6 8 10 10 6 5 8 4 3 8 7 5 6 4 5 6 7 9 6 1 3 4 5 4 4 4 6 3 5 8 6 7 6 5 7 5 4 5 5 4 4 3 3 3 1 3 3 1 3 2 3 4 3 3 3 5 4 2 2 2 2 2 5 6 6
2 4 2 4 12 15 15 13 7 3 6 7 4 3 8 8 5 7 7 3 3 3 4 6 8 8 8 3 2 6 3 2 8 7 5 7 6 6 7 7 10 7 3 4 3 5 6 5 4 4 5 11 11 7 6 7 3 5 3 3 5 4 2 1 2 3 2 1 2 2 3 4 4 7 10 6 7 6 6 6 4 6 4 1 4 8 7 6
3 2 4 3 7 14 15 13 8 6 8 7 3 5 8 6 2 2 3 2 3 6 8 7 5 5 6 2 1 3 1 1 6 5 4 6 6 7 8 7 11 11 8 6 2 3 5 3 1 2 3 9 7 4 4 4 2 3 3 4 4 2 3 2 1 1 4 2 4 3 5 6 3 9 10 10 12 10 8 7 5 8 7 4 6 8 6 5
3 2 4 5 6 10 14 14 12 11 8 5 4 6 3 1 1 1 2 2 5 10 8 5 4 4 6 4 2 5 2 2 5 4 3 4 4 8 10 7 10 14 12 8 3 2 5 2 3 1 2 2 2 1 1 3 2 4 4 5 1 4 2 2 1 2 1 5 4 3 7 6 3 7 4 1 4 4 6 8 7 8 7 6 7 8 8 6
4 3 4 7 9 8 10 15 15 12 6 3 5 6 1 1 2 2 4 4 3 8 6 4 4 5 6 6 5 7 6 4 5 4 4 5 3 7 12 8 7 12 13 10 4 1 3 3 3 2 1 2 3 1 1 3 3 4 2 2 2 1 2 2 3 2 3 5 4 4 8 6 6 10 5 4 5 3 6 8 7 7 7 7 7 7 6 4
3 3 2 6 11 7 8 15 14 8 3 3 6 6 3 3 5 3 4 5 1 3 5 6 5 5 6 7 6 8 8 7 7 6 4 5 3 6 11 8 6 9 11 11 6 2 2 3 3 3 3 1 2 1 4 1 3 3 3 2 2 2 3 3 3 3 3 4 5 6 6 6 9 9 5 6 8 8 8 7 5 5 5 3 3 4 4 3
3 2 1 9 14 10 13 15 9 3 2 3 4 3 4 4 6 6 4 3 3 1 2 4 5 5 6 7 5 7 8 8 8 7 5 6 4 4 7 8 6 6 8 10 8 3 3 3 3 2 4 0 2 4 7 6 4 2 0 2 2 1 2 1 2 2 3 4 4 5 6 8 8 4 4 7 5 4 2 2 1 3 3 3 1 4 5 4
3 2 2 12 17 16 17 10 3 2 2 3 4 4 5 4 3 6 6 2 1 2 3 2 1 1 3 6 4 5 7 7 7 6 4 7 7 3 2 6 7 7 6 7 7 4 3 4 4 2 1 3 5 6 8 8 9 8 6 7 8 5 4 2 4 3 3 3 3 4 5 11 8 3 3 4 2 4 4 6 4 4 6 7 3 5 6 4
2 2 3 12 20 20 14 4 2 3 2 3 5 5 5 4 3 5 5 4 2 1 2 2 0 0 1 1 1 2 5 6 7 7 6 7 8 5 3 3 6 10 7 5 7 6 4 3 4 3 4 5 3 2 3 3 4 5 6 7 7 6 5 5 5 3 2 2 3 2 4 12 13 4 2 6 3 1 2 3 6 8 7 7 4 3 6 5
2 2 4 12 22 20 9 3 4 4 3 4 6 6 6 4 4 5 5 5 4 3 2 1 1 1 1 1 2 2 1 3 5 5 5 6 4 2 2 3 5 9 7 4 5 4 2 3 3 2 1 2 3 2 3 3 2 1 5 5 4 5 6 5 4 3 2 3 3 3 5 12 16 5 2 6 3 3 3 5 7 8 6 6 6 2 2 3
2 1 1 9 18 15 7 6 6 6 6 5 5 6 5 4 6 6 6 7 6 4 4 4 2 2 2 1 2 0 1 0 2 2 1 2 1 3 3 4 4 5 4 2 3 4 3 3 4 3 2 0 2 2 3 3 1 2 4 4 5 6 6 4 2 2 2 6 8 6 6 11 13 3 4 2 4 3 6 7 6 7 6 6 6 3 1 2
3 2 1 5 10 8 4 3 4 6 8 7 7 8 7 4 6 8 8 8 7 5 5 5 5 4 3 2 1 2 2 0 1 2 3 1 0 3 4 1 1 1 1 2 2 5 4 3 5 6 6 6 3 2 3 2 2 2 4 6 8 8 8 5 3 3 6 9 9 8 7 11 14 9 4 2 3 1 6 5 3 5 6 6 7 6 4 4
3 2 2 3 4 3 3 2 2 4 6 9 7 8 10 8 4 7 8 8 8 8 6 6 7 7 5 5 5 6 6 5 3 2 2 1 1 2 4 4 4 3 4 7 6 2 2 1 4 6 7 7 4 3 4 5 5 4 7 8 9 9 9 6 4 6 9 8 8 11 10 13 19 17 14 10 5 6 8 6 6 7 7 7 7 7 6 5
3 3 3 4 3 3 4 4 5 5 5 8 7 6 11 11 6 5 6 6 8 9 6 5 7 8 8 9 8 7 8 8 6 6 7 4 0 2 3 4 5 4 4 5 5 2 4 2 5 6 8 7 2 1 2 5 6 7 9 9 8 8 8 8 9 11 10 6 9 12 10 12 18 20 17 11 7 9 10 7 7 7 6 7 7 6 6 6
4 2 3 4 3 5 6 6 9 10 8 7 6 6 9 11 9 7 5 5 6 8 6 4 7 10 10 11 8 6 8 9 8 9 9 5 2 1 2 3 3 3 4 3 4 3 5 3 5 4 7 8 4 3 2 1 1 3 4 6 8 9 10 11 14 15 10 7 10 11 9 11 15 18 18 10 6 10 11 9 8 8 8 10 11 11 10 10
3 2 3 4 3 4 7 6 9 12 12 8 6 7 9 12 14 10 6 5 5 7 7 6 9 12 11 10 8 6 8 8 8 8 8 6 5 4 2 1 2 4 4 3 2 2 2 2 1 1 4 8 7 3 4 5 4 3 4 4 4 7 11 13 15 15 12 11 13 14 16 18 16 15 16 14 11 12 12 11 11 12 13 13 12 11 12 12
4 2 2 2 2 2 4 5 7 9 10 9 7 7 7 11 14 11 8 9 7 7 9 10 10 11 12 11 9 8 9 8 6 6 7 7 5 4 4 3 2 2 2 3 1 1 1 2 3 4 1 8 9 6 5 6 5 5 5 6 7 10 12 12 11 9 9 12 15 16 17 18 14 10 12 17 16 12 11 14 14 13 15 12 9 9 10 12
8 5 4 2 2 4 3 3 7 7 7 8 8 9 9 10 12 10 7 9 10 8 10 13 11 7 9 11 12 11 10 7 3 2 4 5 4 2 3 3 4 4 3 3 3 2 3 2 2 3 2 6 7 6 6 6 4 5 7 10 14 13 11 10 8 7 10 13 13 13 12 13 13 9 10 17 18 13 13 16 15 14 14 10 8 10 12 12
12 9 7 3 3 5 3 2 5 7 7 9 11 11 10 9 8 7 5 7 10 10 10 12 11 6 6 11 12 10 5 4 4 5 5 3 3 2 2 2 3 6 5 4 3 3 5 4 3 3 3 6 7 6 6 4 3 5 10 15 17 14 11 11 10 13 16 14 10 10 10 12 13 12 13 16 18 16 15 14 15 15 13 8 8 11 12 12
Wind_Direction
199 202 203 200 199 210 219 217 224 220 202 198 197 193 194 196 199 203 205 207 207 208 210 213 216 227 241 257 262 261 252 206 196 219 221 239 191 172 179 184 191 192 205 204 200 228 233 229 211 190 174 189 184 140 223 274 326 252 135 211 234 232 241 171 107 83 134 135 148 167 181 170 147 164 137 135 193 134 151 150 120 84 82 101 121 131 130 138
204 212 211 203 204 213 221 220 230 225 204 205 207 201 198 198 202 205 205 206 206 210 212 214 218 226 237 251 257 260 239 203 226 237 214 208 185 173 179 188 195 198 209 203 225 241 241 210 171 187 198 173 157 162 225 224 219 236 160 213 239 227 360 19 59 53 49 122 151 166 202 205 145 154 147 163 188 179 184 180 156 132 108 116 131 140 144 149
211 217 214 210 210 204 213 227 242 238 215 211 213 209 205 202 205 206 208 206 205 209 212 214 218 223 235 244 251 249 223 210 251 237 181 178 176 177 180 186 194 200 207 212 255 271 291 293 172 190 216 176 203 189 189 170 187 238 133 207 259 33 49 31 53 67 30 36 140 147 203 244 130 137 151 202 200 181 193 197 174 175 169 155 152 149 152 158
217 216 216 214 210 202 215 237 251 252 230 221 219 215 211 207 209 212 211 207 206 209 211 214 215 221 230 236 245 230 186 232 251 151 159 172 177 182 177 182 191 199 210 218 266 289 298 293 212 201 238 183 166 155 172 175 157 113 97 180 333 356 45 43 46 59 28 357 84 120 120 255 115 112 162 199 217 200 207 206 188 193 184 164 159 158 158 162
220 212 216 215 212 213 227 242 255 259 241 232 227 220 214 211 213 215 215 212 209 208 211 214 216 222 225 235 234 191 141 218 120 106 159 170 175 177 171 175 177 192 201 203 272 271 269 266 233 219 259 180 143 162 170 152 101 157 156 98 37 3 46 53 52 42 358 327 80 114 129 166 98 101 192 207 228 208 186 117 108 169 164 155 156 158 161 167
227 214 213 217 219 224 235 243 255 260 253 241 230 223 215 212 214 216 217 214 211 210 213 215 216 220 222 231 204 167 193 197 76 107 158 161 169 165 156 154 144 167 173 197 270 258 252 247 221 206 249 194 163 178 141 125 108 232 155 88 43 25 70 50 58 31 328 340 91 119 141 54 105 205 207 210 228 183 114 92 68 60 120 142 150 155 165 174
231 220 210 217 226 231 239 241 247 251 256 250 239 225 212 212 214 215 216 213 213 211 212 216 215 219 215 188 156 169 236 339 72 146 154 152 155 147 136 127 121 133 144 249 251 226 230 230 210 212 235 214 177 168 120 125 154 234 181 97 53 40 81 62 71 111 332 20 48 19 329 281 206 232 170 214 231 203 122 108 99 90 114 135 146 160 175 180
236 225 211 218 229 230 238 238 244 251 248 247 251 232 213 214 215 215 215 213 214 210 212 215 212 217 196 160 147 196 221 129 110 151 153 149 145 134 115 87 76 98 150 274 265 244 242 225 224 229 219 237 171 144 150 158 176 234 171 113 114 72 91 95 105 124 33 43 43 22 273 248 201 63 346 243 235 225 154 122 119 115 124 144 156 168 179 183
244 232 213 221 230 228 237 238 241 251 249 238 248 244 222 218 216 215 216 215 215 211 213 211 210 215 190 175 235 254 194 136 141 160 157 150 141 124 99 69 28 324 277 265 287 291 274 231 239 247 108 279 136 128 175 172 191 241 122 117 129 110 103 121 127 122 177 181 82 267 244 232 71 46 266 242 231 219 169 137 138 133 146 168 168 175 179 184
243 237 218 224 232 230 238 241 246 251 243 231 243 246 228 221 215 213 214 215 216 212 211 209 208 203 185 191 239 254 153 130 140 162 162 154 141 122 89 104 197 295 282 225 322 305 316 329 318 12 27 322 102 89 33 58 289 331 105 104 109 122 123 199 146 123 140 80 113 267 272 209 84 22 251 249 230 188 156 150 159 152 169 186 183 185 184 187
239 238 220 221 227 230 237 239 247 245 229 241 253 239 221 218 211 207 208 209 213 211 208 206 203 192 182 217 239 232 162 146 152 158 161 160 151 137 122 190 178 337 318 22 57 359 1 349 338 358 11 100 108 54 39 4 283 106 117 101 110 144 133 180 165 142 164 67 248 288 305 263 115 216 236 207 148 154 158 176 183 176 187 198 198 194 189 194
236 231 214 213 221 224 230 232 240 244 246 261 252 226 205 206 204 199 200 201 206 206 200 197 199 191 182 254 253 165 143 157 155 152 156 156 141 128 129 164 185 18 332 333 93 52 67 11 344 5 4 350 121 91 80 236 264 125 161 132 145 169 155 187 166 143 180 133 263 326 313 260 179 226 239 185 152 156 168 193 195 193 195 204 208 196 191 197
226 216 207 209 214 215 222 226 236 248 253 255 243 221 201 195 195 195 193 194 197 197 193 195 193 183 188 261 165 111 138 150 142 139 143 135 115 96 112 119 151 174 324 360 118 110 103 48 359 53 34 351 102 133 209 198 127 157 221 229 149 178 198 192 154 139 171 125 236 124 319 264 211 226 232 153 149 152 170 205 203 205 202 202 203 194 191 192
211 203 200 202 208 210 215 224 234 247 251 245 233 217 200 190 189 190 189 188 190 187 184 187 181 171 189 155 102 109 140 136 127 137 142 129 113 99 95 95 106 141 126 109 121 118 102 64 26 92 58 16 95 176 183 127 209 170 174 298 206 201 182 166 134 155 180 210 235 166 229 271 279 238 185 127 152 157 188 218 213 219 213 200 191 187 193 193
203 197 196 197 204 210 214 222 228 243 248 236 223 211 193 185 182 180 184 181 177 176 175 181 174 166 203 203 111 134 138 129 130 158 149 133 133 123 102 99 100 99 107 113 109 96 87 66 48 105 68 6 101 142 143 145 232 178 133 260 238 222 167 141 120 158 167 286 216 178 230 264 277 224 132 119 135 158 216 236 229 229 221 208 191 182 191 202
202 196 195 198 203 209 214 215 213 231 241 223 205 195 178 176 170 169 175 168 161 162 157 171 181 189 271 164 138 144 147 142 153 161 152 136 124 123 120 110 94 85 91 103 99 85 70 52 40 114 92 109 183 183 162 150 232 209 184 236 212 194 184 174 322 109 128 120 201 210 253 277 267 179 168 168 159 168 214 247 246 238 228 217 202 190 195 204
205 199 196 198 200 200 200 197 198 224 231 198 177 157 153 158 154 151 150 142 138 146 144 197 176 184 303 117 138 161 154 145 156 161 158 138 116 127 138 122 100 102 104 99 88 66 33 47 69 219 110 173 224 210 162 175 230 205 196 248 227 176 185 179 334 328 162 188 234 222 233 264 271 244 216 209 186 177 194 224 237 235 229 221 209 204 202 203
202 195 194 195 191 189 187 182 192 218 209 177 151 132 129 129 125 118 122 127 112 103 5 323 174 183 240 163 140 126 131 140 152 156 159 145 133 148 163 140 141 144 138 126 82 79 52 41 35 142 153 215 236 196 176 204 225 180 181 221 213 197 242 238 121 171 181 208 257 235 231 251 264 265 254 234 207 194 203 214 224 231 234 237 227 218 212 206
191 190 196 195 187 183 178 174 190 205 166 135 127 121 115 111 110 108 127 143 125 97 296 199 180 178 132 143 116 97 118 135 136 133 154 153 149 159 184 170 162 165 159 153 268 286 85 99 59 197 180 202 222 205 207 211 38 45 129 192 215 217 250 157 107 84 223 194 240 241 244 249 257 263 260 248 225 210 215 217 223 231 234 241 239 231 226 218
187 191 195 189 178 169 162 169 191 183 152 136 130 125 121 124 128 128 164 207 225 358 7 177 171 129 103 109 106 112 115 120 117 117 161 161 157 167 194 176 113 354 216 156 146 234 46 118 191 217 206 204 208 205 198 48 39 21 25 13 337 2 9 89 99 6 351 321 246 243 252 256 258 263 262 258 254 244 235 232 232 230 226 228 232 237 235 230
186 186 181 168 155 150 154 176 190 175 165 156 153 179 155 150 173 146 154 212 232 81 43 31 86 79 102 122 136 141 122 97 91 129 166 172 169 166 179 177 139 196 213 97 95 92 57 200 225 220 214 189 189 157 94 51 38 39 19 1 348 296 171 72 84 194 44 29 267 273 278 269 264 270 272 266 262 255 240 238 240 233 228 224 227 239 239 237
186 183 170 156 147 144 156 186 189 175 173 174 198 262 349 31 325 126 134 195 191 113 75 66 102 84 90 126 158 176 160 134 125 138 174 178 184 175 156 178 184 173 143 95 89 90 99 238 239 208 98 67 62 67 66 28 32 76 99 18 334 260 156 72 58 184 98 131 270 303 304 281 271 266 266 261 255 250 233 229 234 228 227 224 226 239 238 232
189 186 177 166 158 159 171 190 188 172 171 188 234 272 339 358 352 62 106 222 166 165 181 209 175 133 109 131 188 201 183 150 148 170 181 176 182 187 151 179 198 157 146 153 151 154 168 230 248 58 71 78 62 51 77 62 33 158 171 138 236 240 104 61 340 276 220 210 270 319 310 282 275 258 252 246 241 249 245 234 235 222 216 220 227 236 228 217
195 189 184 180 175 181 188 180 158 158 181 208 243 261 285 336 346 19 312 293 147 162 223 208 238 149 142 148 181 195 203 132 131 158 178 182 158 147 174 190 201 178 168 184 191 201 174 187 308 49 52 128 97 93 157 166 216 216 198 191 222 228 106 108 38 302 246 222 293 328 313 280 273 253 258 255 234 246 251 240 241 229 217 224 238 243 231 216
197 194 191 189 192 196 199 200 188 194 196 218 242 242 249 294 332 4 84 246 180 144 350 208 207 177 148 127 161 185 94 76 41 127 172 189 140 133 190 195 197 196 187 187 202 223 194 5 337 103 106 181 121 151 199 185 222 237 210 207 238 271 83 91 35 359 335 319 282 360 339 290 305 303 288 309 301 261 256 238 238 234 221 227 242 246 242 238
202 196 191 198 204 197 191 164 173 184 179 200 240 236 247 272 315 10 112 288 228 165 133 166 165 174 159 141 157 135 87 163 11 75 151 177 272 114 161 146 88 197 196 185 199 227 153 332 5 120 131 117 122 242 204 174 229 267 261 321 331 49 78 84 17 18 4 290 246 125 62 278 303 297 280 288 287 271 264 255 249 237 216 219 230 231 229 234
212 206 198 202 206 192 178 120 161 164 157 190 231 225 239 252 278 355 99 334 255 165 141 162 195 173 162 160 172 151 125 162 119 57 99 130 216 40 101 164 121 213 240 111 112 331 122 141 120 123 127 125 155 250 183 165 168 258 270 320 17 82 91 107 64 231 236 317 288 172 163 256 283 282 274 268 268 266 257 256 257 243 223 218 219 212 203 202
211 213 207 204 203 192 145 83 167 168 59 356 244 206 210 222 240 342 121 206 224 147 140 167 126 135 136 144 175 157 113 138 137 99 37 61 99 43 69 186 165 185 208 119 160 283 88 155 167 152 154 155 164 261 195 166 152 248 257 314 76 94 95 112 97 269 304 11 306 204 151 258 258 266 278 264 259 266 254 247 251 246 229 207 181 164 154 145
194 210 210 206 203 200 194 97 189 216 4 355 285 188 179 189 217 14 197 214 163 119 125 138 128 124 122 128 154 146 111 86 71 147 91 64 58 46 129 237 219 183 186 166 155 357 20 176 184 151 164 173 127 30 352 135 139 213 209 96 82 91 75 73 100 45 17 337 257 196 167 255 262 235 246 250 252 255 248 249 258 256 187 141 129 132 126 112
164 196 208 206 198 199 209 240 266 264 325 343 180 157 146 144 197 165 191 212 152 106 72 108 143 153 154 149 152 170 141 76 63 124 152 150 70 348 169 357 317 148 141 75 80 79 104 142 191 127 135 138 118 70 20 49 115 157 164 103 83 80 57 42 89 78 40 279 263 193 182 206 278 251 211 221 229 215 234 251 206 84 82 90 106 140 155 146
170 153 199 202 195 193 198 212 223 232 304 64 138 138 135 100 296 190 187 234 345 134 129 156 144 147 164 164 154 179 154 108 141 145 142 156 112 321 214 137 3 52 53 1 41 120 134 113 155 90 356 120 113 73 25 22 62 109 144 116 91 25 31 23 9 64 188 252 291 270 193 193 248 265 309 324 9 102 189 206 125 116 111 124 163 185 177 165
192 169 187 197 200 195 187 168 173 198 44 125 136 128 134 142 244 225 191 93 249 184 161 170 162 157 176 172 151 171 159 130 165 165 149 160 165 185 196 184 154 112 218 216 191 52 180 205 156 78 328 205 129 84 35 4 357 74 150 120 109 338 15 347 256 162 226 240 271 329 358 244 243 254 301 312 318 307 248 105 101 113 143 167 188 201 186 169
189 198 200 201 207 203 195 194 131 131 122 125 132 81 116 170 204 213 194 162 198 178 135 152 161 162 174 177 159 160 156 143 171 177 158 161 177 195 210 208 182 182 214 179 164 132 256 269 135 108 336 240 174 145 125 284 239 188 169 140 145 167 187 236 231 209 235 248 294 326 355 267 268 275 259 260 271 288 333 29 109 90 216 193 180 196 195 183
200 195 198 205 209 209 213 218 195 138 119 103 100 114 169 200 203 196 197 185 103 72 100 137 150 158 171 182 159 150 150 162 167 170 163 162 184 201 210 221 208 207 196 166 175 172 203 279 186 171 176 181 194 193 168 157 176 199 188 161 174 173 186 212 191 206 230 246 313 319 282 207 218 273 255 237 263 307 334 314 314 347 324 347 319 259 236 215
271 210 214 208 206 212 221 222 221 186 122 90 69 146 186 206 200 191 194 159 118 111 108 131 139 155 173 182 151 156 141 163 171 174 173 175 194 197 191 206 209 207 178 188 208 170 199 244 188 163 160 167 185 206 170 132 151 221 203 187 218 199 172 183 165 176 153 15 294 234 245 222 201 271 272 266 275 277 287 299 327 322 301 276 271 264 251 234
341 249 244 236 210 216 219 218 215 183 135 100 104 182 200 212 187 182 184 126 142 137 124 134 139 158 172 154 209 196 58 87 170 177 187 193 209 203 196 196 196 199 190 184 203 157 179 242 356 58 138 166 183 214 173 134 168 205 175 202 216 125 112 165 264 58 102 268 263 186 258 283 306 287 261 235 254 255 249 261 269 276 269 235 252 270 274 248
345 299 248 251 232 219 217 215 200 172 143 106 169 201 215 275 325 322 336 6 141 140 135 149 166 180 176 154 189 194 155 111 166 176 181 191 218 210 209 210 190 196 201 192 214 186 160 209 311 36 145 201 295 327 75 46 91 136 175 206 140 43 33 141 214 354 126 247 261 188 251 282 309 281 263 188 277 259 228 238 235 243 243 237 257 273 279 261
314 278 265 251 230 215 209 203 183 162 144 118 191 222 251 359 297 1 355 335 144 151 167 178 169 182 182 174 180 177 167 158 172 186 179 177 221 207 201 211 195 196 202 193 208 249 152 189 290 353 4 310 353 42 128 14 48 114 179 223 103 113 245 141 172 231 212 239 268 250 255 264 239 250 284 346 318 284 251 248 232 216 211 225 249 257 268 274
292 260 278 220 212 212 188 179 165 147 138 149 186 219 210 230 273 327 346 330 340 176 196 193 189 198 195 184 167 164 175 176 168 178 188 179 211 205 189 195 201 194 193 190 200 211 139 186 240 326 324 353 47 202 193 184 15 28 4 347 78 152 185 167 183 195 184 217 251 267 269 259 237 242 274 280 265 258 257 256 234 194 185 211 221 213 228 241
246 253 196 178 191 192 160 154 152 139 140 159 180 194 179 208 248 259 277 340 12 336 221 213 212 201 205 204 172 156 180 186 172 180 202 180 188 227 189 177 184 184 180 188 197 174 136 192 205 319 331 346 162 216 191 169 165 169 274 216 191 148 121 145 242 194 173 196 231 254 265 261 245 220 230 236 244 260 228 108 118 118 65 355 31 169 197 226
228 262 172 168 175 164 143 134 148 177 155 164 182 189 190 196 213 225 227 178 77 358 36 27 256 202 224 219 189 157 173 189 183 181 200 190 192 238 207 169 170 164 164 186 198 181 161 183 174 143 288 218 212 215 193 183 185 187 194 196 197 189 149 185 248 222 176 186 207 219 260 270 256 175 205 244 24 29 75 72 13 344 349 323 293 167 166 184
232 229 154 167 169 155 139 143 192 180 211 190 183 187 189 202 208 192 187 173 198 278 48 48 118 359 308 243 161 128 156 188 197 186 196 204 198 205 215 189 164 157 156 180 198 191 159 154 169 175 195 205 219 208 174 177 184 197 218 207 196 192 169 183 216 214 189 209 229 227 261 272 264 222 252 289 323 56 133 40 326 307 308 293 277 176 158 165
226 195 134 170 174 159 149 204 185 187 227 193 191 192 172 183 198 172 163 173 185 189 183 177 135 166 295 19 45 29 154 198 211 197 192 196 199 194 162 154 154 157 155 166 190 185 137 149 182 197 183 78 32 22 31 32 76 215 244 212 182 198 191 188 194 174 180 196 208 231 239 266 272 260 213 264 238 182 251 299 288 280 283 273 273 280 124 114
218 253 95 174 181 173 177 205 192 202 209 188 203 207 188 192 194 180 173 180 184 177 188 209 190 175 225 113 96 328 312 254 244 260 187 172 229 5 76 133 154 161 161 168 179 172 166 173 160 158 184 111 17 6 1 347 307 228 236 199 192 200 174 156 163 141 221 209 195 210 230 254 269 285 87 125 133 164 255 262 243 246 260 269 280 302 79 115
205 244 301 186 189 192 211 218 206 210 203 197 204 204 203 205 198 197 188 179 184 177 176 204 202 185 195 178 173 253 277 183 250 329 9 44 334 11 24 39 111 146 120 62 111 156 174 192 166 172 202 205 197 207 217 230 211 227 229 203 205 200 169 153 144 158 222 222 207 218 238 254 266 279 296 268 117 198 260 265 266 258 256 264 276 281 266 237
200 203 199 179 190 227 257 270 264 243 206 198 203 204 205 204 197 203 198 188 189 184 178 186 183 183 190 185 199 233 237 226 225 277 312 276 156 35 5 13 35 58 72 46 34 102 131 260 197 197 218 208 186 198 193 158 146 197 222 211 209 206 190 178 166 192 218 226 229 234 237 257 270 273 273 274 297 300 286 296 305 287 275 269 262 261 258 245
221 213 194 172 179 227 238 234 233 242 221 201 198 195 202 205 198 194 206 207 191 189 198 189 175 183 186 179 188 208 210 208 210 224 241 246 141 36 6 35 41 40 69 42 3 65 109 267 241 223 241 243 242 345 122 130 161 202 212 207 211 215 202 195 212 224 222 219 242 244 235 251 266 271 272 278 294 291 287 292 289 285 296 294 284 277 269 260
224 240 213 193 196 210 213 211 211 220 229 222 208 194 197 203 202 193 199 214 203 197 206 201 193 198 193 182 182 189 189 192 201 212 221 221 182 104 26 42 29 20 60 37 346 71 123 222 244 235 258 265 279 335 9 40 215 224 217 203 204 210 207 209 226 235 229 225 251 262 257 253 262 272 279 290 298 286 291 299 291 290 299 296 291 289 284 278
225 274 245 225 231 216 209 201 199 212 223 228 227 211 196 199 205 197 176 182 205 208 204 207 205 202 201 194 189 194 191 187 198 206 201 198 189 176 168 94 13 12 52 61 356 39 127 200 181 71 284 275 274 292 306 298 297 297 282 262 231 221 217 217 228 236 237 243 256 265 267 263 261 271 287 296 290 284 291 293 289 287 285 282 280 279 277 273
208 223 238 252 294 269 239 207 186 202 219 222 230 230 215 208 208 199 178 176 186 192 196 210 212 200 202 206 203 209 204 194 208 207 185 190 199 199 201 180 128 57 76 110 104 356 193 187 126 96 293 273 266 261 265 269 267 263 271 272 259 246 237 233 234 236 239 246 249 255 264 268 267 275 289 287 281 283 287 283 280 278 275 275 275 270 267 266
230 269 293 301 256 234 250 224 185 189 209 214 220 225 225 223 212 201 192 185 183 182 189 205 212 200 202 210 213 220 217 209 216 160 143 174 184 199 245 201 147 143 149 152 147 146 174 177 111 113 191 256 250 233 231 241 254 262 257 248 242 239 240 241 235 228 232 239 245 251 258 264 270 276 273 273 278 280 277 276 277 274 273 274 272 268 264 260
229 271 287 294 255 218 214 234 200 194 203 210 217 217 218 229 222 207 204 190 187 192 190 196 201 195 207 217 219 223 211 144 119 104 101 102 91 85 293 301 133 146 158 165 149 152 170 167 146 151 198 255 242 202 197 207 216 242 239 234 235 234 235 240 239 234 233 233 236 241 243 251 267 274 266 265 271 271 269 272 274 274 277 270 252 257 261 258